Tracking 19795 objects as of 18-Jul-2019
HD Live streaming from Space Station
objects crossing your sky now

FENGYUN 1C DEB

Track FENGYUN 1C DEB now!
10-day predictions


NORAD ID: 31931
Int'l Code: 1999-025CMG
Perigee: 794.7 km
Apogee: 1,444.6 km
Inclination: 97.8 °
Period: 107.5 minutes
Semi major axis: 7490 km
RCS: 0.0158 m2 (small)
Launch date: May 10, 1999
Source: People's Republic of China (PRC)
Launch site: Taiyaun Space Center, China (TSC)

Note: This is SATELLITE DEBRIS
aabbcc
Your satellite tracking list
Your tracking list is empty




NASA's NSSDC Master Catalog

Two Line Element Set (TLE):
1 31931U 99025CMG 19198.03189801  .00000398  00000-0  46082-3 0  9993
2 31931  97.8256 284.4129 0433790 211.4357 146.0178 13.39130119593820
Source of the keplerian elements: AFSPC